This is the latest recevied weather packets stored in our database for station/object W6SNO-1. If no packets are shown the sender has not sent any weather packets the latest 10 day(s).
| Time | Temp. | Humidity | Pressure | Rain* | Wind** | Luminosity | Snow |
|---|---|---|---|---|---|---|---|
| 1778171526 | 13.89° C | 90% | 1019.4 hPa | 0 mm | - | 113 W/m² | - |
| 1778171222 | 13.89° C | 90% | 1019.4 hPa | 0 mm | - | 107 W/m² | - |
| 1778170918 | 13.89° C | 91% | 1019.5 hPa | 0 mm | - | 100 W/m² | - |
| 1778170614 | 13.33° C | 90% | 1019.4 hPa | 0 mm | - | 95 W/m² | - |
| 1778170311 | 13.89° C | 90% | 1019.4 hPa | 0 mm | - | 95 W/m² | - |
| 1778170007 | 13.89° C | 91% | 1019.1 hPa | 0 mm | - | 89 W/m² | - |
| 1778169704 | 13.89° C | 91% | 1019.5 hPa | 0 mm | - | 87 W/m² | - |
| 1778169400 | 13.33° C | 92% | 1019.2 hPa | 0 mm | - | 77 W/m² | - |
| 1778169096 | 13.33° C | 92% | 1019.4 hPa | 0 mm | - | 75 W/m² | - |
| 1778168793 | 13.33° C | 92% | 1019.4 hPa | 0 mm | - | 68 W/m² | - |
| 1778168491 | 13.33° C | 92% | 1019.3 hPa | 0 mm | - | 62 W/m² | - |
| 1778168187 | 12.78° C | 93% | 1019.3 hPa | 0 mm | - | 61 W/m² | - |
| 1778167884 | 12.78° C | 93% | 1019.2 hPa | 0 mm | - | 60 W/m² | - |
| 1778167580 | 12.78° C | 93% | 1019.3 hPa | 0 mm | - | 59 W/m² | - |
| 1778167276 | 12.78° C | 93% | 1019.2 hPa | 0 mm | - | 56 W/m² | - |
| 1778166972 | 12.78° C | 93% | 1019.3 hPa | 0 mm | - | 54 W/m² | - |
| 1778166669 | 12.78° C | 93% | 1019.3 hPa | 0 mm | - | 51 W/m² | - |
| 1778166361 | 12.78° C | 94% | 1019.4 hPa | 0 mm | - | 46 W/m² | - |
| 1778166058 | 12.78° C | 94% | 1019.4 hPa | 0 mm | - | 42 W/m² | - |
| 1778165752 | 12.78° C | 94% | 1019.4 hPa | 0 mm | - | 39 W/m² | - |
| 1778165451 | 12.78° C | 94% | 1019.5 hPa | 0 mm | - | 35 W/m² | - |
| 1778165147 | 12.78° C | 94% | 1019.5 hPa | 0 mm | - | 32 W/m² | - |
| 1778164845 | 12.78° C | 94% | 1019.5 hPa | 0 mm | - | 29 W/m² | - |
| 1778164541 | 12.78° C | 94% | 1019.3 hPa | 0 mm | - | 28 W/m² | - |
| 1778164239 | 12.78° C | 94% | 1019.2 hPa | 0 mm | - | 25 W/m² | - |
* Rain latest hour (hover to see other rain measurements)
** Current wind speed in m/s (hover to see current wind gust speed)